TimeCDT,TemperatureF,Dew PointF,Humidity,Sea Level PressureIn,VisibilityMPH,Wind Direction,Wind SpeedMPH,Gust SpeedMPH,PrecipitationIn,Events,Conditions,WindDirDegrees,DateUTC
12:53 AM,57.0,51.1,81,30.06,10.0,Calm,Calm,-,N/A,,Mostly Cloudy,0,2013-03-21 05:53:00
1:53 AM,55.0,51.1,86,30.04,10.0,SE,3.5,-,N/A,,Mostly Cloudy,140,2013-03-21 06:53:00
2:53 AM,55.9,52.0,87,30.02,10.0,Calm,Calm,-,N/A,,Clear,0,2013-03-21 07:53:00
3:53 AM,57.0,52.0,83,30.01,10.0,Calm,Calm,-,N/A,,Mostly Cloudy,0,2013-03-21 08:53:00
4:53 AM,55.0,51.1,86,29.99,10.0,Calm,Calm,-,N/A,,Scattered Clouds,0,2013-03-21 09:53:00
5:53 AM,55.9,46.0,69,29.97,10.0,ESE,3.5,-,N/A,,Scattered Clouds,110,2013-03-21 10:53:00
6:53 AM,55.0,46.0,72,29.98,10.0,SE,3.5,-,N/A,,Mostly Cloudy,130,2013-03-21 11:53:00
7:53 AM,55.9,48.0,75,29.98,10.0,SSE,3.5,-,N/A,,Mostly Cloudy,150,2013-03-21 12:53:00
8:53 AM,62.1,50.0,65,29.98,10.0,SE,6.9,-,N/A,,Scattered Clouds,130,2013-03-21 13:53:00
9:53 AM,66.0,51.1,59,29.97,10.0,SSE,13.8,24.2,N/A,,Scattered Clouds,150,2013-03-21 14:53:00
10:53 AM,69.1,48.0,47,29.96,10.0,SSE,17.3,25.3,N/A,,Scattered Clouds,160,2013-03-21 15:53:00
11:53 AM,71.1,48.9,45,29.94,10.0,SE,16.1,25.3,N/A,,Mostly Cloudy,140,2013-03-21 16:53:00
12:53 PM,72.0,52.0,49,29.91,10.0,South,18.4,25.3,N/A,,Mostly Cloudy,190,2013-03-21 17:53:00
1:53 PM,72.0,54.0,53,29.87,10.0,South,15.0,26.5,N/A,,Mostly Cloudy,170,2013-03-21 18:53:00
2:53 PM,70.0,54.0,57,29.83,10.0,SSE,17.3,27.6,N/A,,Overcast,160,2013-03-21 19:53:00
3:53 PM,70.0,54.0,57,29.80,10.0,SSE,18.4,25.3,N/A,,Mostly Cloudy,160,2013-03-21 20:53:00
4:53 PM,69.1,54.0,58,29.78,10.0,SSE,12.7,21.9,N/A,,Overcast,160,2013-03-21 21:53:00
5:53 PM,68.0,55.0,63,29.76,10.0,SSE,12.7,-,N/A,,Overcast,150,2013-03-21 22:53:00
6:53 PM,68.0,55.9,65,29.75,10.0,SSE,13.8,-,N/A,,Overcast,160,2013-03-21 23:53:00
7:10 PM,66.2,57.2,73,29.74,10.0,SSE,16.1,24.2,N/A,,Overcast,160,2013-03-22 00:10:00
7:53 PM,66.0,57.9,75,29.76,10.0,SSE,10.4,17.3,N/A,,Overcast,160,2013-03-22 00:53:00
8:53 PM,66.9,57.9,73,29.75,10.0,South,13.8,23.0,N/A,,Overcast,170,2013-03-22 01:53:00
9:53 PM,66.9,59.0,76,29.77,10.0,SSE,9.2,-,N/A,,Overcast,160,2013-03-22 02:53:00
10:53 PM,68.0,59.0,73,29.77,10.0,SSE,10.4,-,N/A,,Overcast,160,2013-03-22 03:53:00
11:53 PM,68.0,60.1,76,29.75,10.0,SSE,9.2,-,N/A,,Overcast,160,2013-03-22 04:53:00